Theta_e
319 316 319 318 308 308 303 304 310 308 311 317 319 315 313 312 307 306 322 328 329 332 337 342 343 344 343 341 338 338 339 338 338 340 340 340 339 338 338 338 339 340 340 341 340 340 339 338 337
312 314 318 316 303 298 301 308 306 310 311 314 314 314 312 310 316 317 321 327 331 338 343 343 341 343 342 339 338 338 339 339 339 340 341 340 340 340 340 339 340 339 339 339 339 337 337 336 335
311 312 312 308 302 297 300 306 309 309 310 312 311 314 314 314 316 320 324 328 337 340 342 342 340 342 341 340 339 338 340 339 341 341 341 340 341 342 340 340 339 339 337 336 336 336 335 335 333
312 312 311 302 298 302 303 306 304 307 309 311 312 310 315 318 319 322 326 328 338 340 342 339 340 341 340 339 338 338 339 339 340 341 341 341 340 340 340 339 339 339 336 334 333 333 333 333 332
312 309 300 298 299 302 306 306 303 304 309 310 312 308 311 318 320 324 326 329 337 339 341 339 339 340 340 339 339 339 338 340 340 341 340 340 339 339 338 338 337 336 335 334 332 331 330 331 330
303 305 294 293 295 298 303 307 304 303 308 310 309 309 312 319 323 325 327 330 338 338 340 340 335 337 338 338 338 337 337 340 340 340 339 338 338 338 337 337 337 335 334 333 332 330 329 327 327
300 298 293 293 293 294 298 303 303 305 305 308 312 306 312 316 324 327 328 331 337 338 339 339 339 336 332 334 334 335 336 336 338 338 338 336 336 336 336 335 335 334 333 332 331 330 329 327 326
303 300 292 293 292 292 299 300 302 303 303 308 313 306 307 316 326 328 329 330 334 336 338 337 339 337 336 335 330 331 333 334 335 334 332 330 331 331 331 330 333 334 333 331 330 328 326 325 325
302 294 290 291 292 294 299 299 301 304 303 306 310 310 313 322 326 326 326 328 330 333 335 337 337 336 336 335 331 328 329 330 330 331 326 325 330 330 329 327 331 332 331 331 328 326 326 326 325
297 292 291 295 296 295 298 299 300 301 302 303 308 313 318 321 322 322 323 323 325 328 332 336 336 335 336 334 335 332 332 332 332 334 330 329 328 328 327 325 326 328 328 329 327 325 322 321 320
296 291 294 294 296 297 297 297 299 298 297 301 303 310 317 319 319 321 322 323 324 328 331 332 335 335 335 334 334 331 332 331 333 334 329 327 325 326 328 327 328 327 322 326 324 318 317 317 316
291 294 295 295 296 296 295 297 296 297 298 302 303 310 316 317 319 321 322 323 324 327 328 331 334 334 335 335 333 330 330 330 331 332 330 328 325 322 325 324 325 325 323 323 318 313 316 318 316
290 291 293 294 293 295 295 295 295 296 300 301 301 303 307 314 318 321 323 325 326 324 327 329 331 332 333 332 333 329 328 329 329 330 329 327 324 322 322 322 324 318 320 317 312 311 313 316 315
291 291 292 292 292 292 291 293 293 296 300 300 299 300 302 306 310 317 321 323 324 326 326 328 330 332 333 332 330 329 328 327 327 328 328 327 325 323 322 321 321 317 315 315 311 309 313 314 313
292 289 291 292 292 292 293 290 289 296 298 296 298 299 300 302 306 311 317 321 324 326 327 327 329 331 331 330 331 328 327 325 325 326 327 326 325 324 323 321 320 320 315 312 310 307 306 312 310
288 287 285 291 291 292 291 286 294 296 296 295 296 298 298 299 301 305 311 315 321 325 326 327 328 330 330 329 331 330 328 327 324 324 325 324 324 323 322 321 320 319 318 315 313 313 312 311 310
286 282 284 285 290 290 289 288 294 293 294 294 295 295 295 296 297 300 303 308 314 319 324 326 328 329 330 330 329 330 329 329 327 323 320 320 322 322 322 320 320 319 317 316 315 313 312 309 308
280 280 282 282 285 286 287 287 291 293 292 292 293 294 295 294 296 299 300 302 304 312 318 323 326 328 329 331 328 326 326 328 328 324 321 319 319 320 320 320 319 318 317 315 314 312 310 308 307
283 281 280 282 285 284 284 285 287 290 290 290 291 292 293 294 297 299 300 302 302 305 310 315 321 325 327 327 323 322 321 324 325 326 323 319 317 316 318 317 316 317 316 315 313 312 306 302 304
284 281 281 284 286 285 284 283 287 289 290 291 291 292 293 294 296 297 298 299 300 301 303 309 314 320 325 325 326 325 325 323 324 324 323 321 318 316 315 314 313 314 314 315 313 309 304 304 301
282 280 280 280 284 286 284 281 284 288 290 292 292 293 294 294 295 296 298 299 299 299 300 303 309 314 320 324 324 324 324 323 321 320 321 323 320 317 315 314 313 312 314 313 313 310 307 303 300
278 285 284 282 280 276 283 274 282 285 286 289 291 293 293 294 294 293 293 295 296 298 299 299 302 309 316 322 321 321 320 318 320 319 322 322 322 320 318 317 314 311 312 312 312 312 311 309 302
280 284 282 282 280 279 279 276 280 284 283 286 290 291 290 290 291 292 293 294 296 297 299 300 299 302 312 320 322 319 319 321 322 321 319 319 318 319 319 316 314 311 311 312 311 310 311 312 309
285 283 282 281 279 273 278 277 278 281 283 285 288 287 289 290 291 292 293 294 295 297 298 299 299 299 304 314 317 321 320 319 319 321 321 318 318 317 317 317 315 314 311 311 310 309 309 311 312
283 279 272 271 271 270 278 276 279 284 285 285 286 287 287 289 289 290 291 292 293 294 296 297 298 298 301 303 313 319 323 323 321 321 322 320 317 315 315 315 315 314 313 312 311 308 306 308 310
278 278 273 266 268 271 277 273 278 283 284 285 285 285 286 287 288 289 290 291 292 294 295 296 297 297 300 302 303 313 320 322 323 323 323 322 319 318 318 317 316 315 316 315 313 308 306 307 306
277 274 280 273 275 271 274 278 283 283 281 282 282 284 284 286 287 288 290 291 292 293 294 295 296 297 298 302 304 306 314 319 321 323 324 323 322 318 317 317 316 315 314 313 312 309 305 305 304
279 280 272 274 265 265 271 273 276 279 279 280 282 283 284 286 287 288 289 290 292 293 294 296 296 296 297 299 304 306 310 317 319 320 320 323 322 318 316 316 314 314 314 312 310 308 307 304 303
276 274 275 275 272 266 265 271 281 280 281 281 282 283 284 285 286 287 288 290 291 293 294 295 296 296 296 297 299 305 310 313 317 314 318 321 322 320 316 315 313 313 313 312 310 308 307 304 304
278 276 276 270 268 272 270 270 282 282 282 283 283 284 284 286 286 287 288 289 291 292 292 294 295 294 295 295 297 301 308 313 314 316 315 319 320 319 317 315 314 312 312 312 310 308 307 304 303
Wind_Speed
9 5 3 5 6 5 8 6 1 5 4 3 6 3 9 6 5 1 1 7 12 17 14 14 15 19 18 16 15 15 12 14 14 14 14 14 14 13 12 11 11 18 19 22 21 22 22 22 21
6 2 4 1 7 8 7 6 10 4 3 3 5 3 3 2 2 4 9 8 15 15 13 16 17 19 18 15 14 14 12 13 13 13 13 12 9 15 14 14 17 19 20 20 19 18 20 20 20
3 2 4 4 6 10 4 8 6 3 3 4 3 1 1 3 2 8 3 13 18 14 14 16 17 18 18 16 14 13 12 11 13 14 13 12 13 20 18 20 19 19 19 20 17 17 17 19 20
3 4 3 7 9 8 4 7 3 6 4 4 2 4 2 3 2 4 11 16 18 15 14 17 17 19 17 16 14 13 11 10 9 13 11 16 17 19 19 19 18 17 18 17 17 16 16 17 17
0 3 6 6 10 4 7 2 2 4 7 8 6 6 3 3 2 7 13 17 19 17 15 17 15 17 17 15 14 13 12 10 11 13 15 16 17 17 17 17 17 16 16 16 16 15 14 14 15
4 2 6 11 9 4 6 7 5 4 5 6 6 5 4 5 7 8 12 16 18 17 16 17 14 13 16 14 12 10 11 10 11 13 17 16 17 17 15 14 14 16 16 15 15 16 15 12 14
5 5 7 6 4 4 5 4 10 6 6 8 2 7 5 7 7 9 11 14 15 16 16 15 16 15 12 13 11 10 9 8 9 12 15 15 13 14 13 11 12 13 15 14 13 15 14 14 13
2 4 4 6 7 5 5 6 2 8 4 2 1 5 6 7 10 10 11 13 15 15 15 15 15 15 14 13 10 11 10 9 9 10 11 11 11 10 10 8 9 12 14 15 14 14 12 13 14
2 6 9 8 8 3 5 7 3 1 3 3 1 3 4 10 10 10 11 12 13 13 14 14 13 13 14 13 11 10 10 10 9 10 10 10 9 10 11 7 10 15 14 15 17 14 13 11 11
8 7 11 3 5 2 4 4 4 5 5 5 6 6 7 10 11 12 13 13 15 16 16 13 15 14 13 10 13 12 11 9 10 11 12 7 7 7 6 9 10 13 13 15 19 14 16 9 6
4 11 8 3 5 3 1 3 1 3 5 3 2 7 10 11 10 10 12 12 13 14 13 15 13 15 14 11 10 5 7 7 7 12 11 7 6 6 6 5 5 7 10 9 11 8 6 8 5
7 6 4 0 2 3 5 2 6 7 7 4 4 4 7 10 12 13 13 13 14 14 15 15 15 12 15 10 10 8 7 8 8 10 13 9 8 6 8 6 6 5 5 9 6 5 7 7 6
7 4 3 2 3 6 3 8 11 8 12 7 4 4 6 8 10 11 11 12 13 14 16 15 15 11 13 10 11 9 8 8 10 10 12 10 10 10 7 8 7 5 6 6 6 6 5 7 7
1 4 6 3 4 4 6 10 6 9 15 16 10 12 11 10 10 9 12 13 14 14 16 15 15 16 14 13 12 10 8 9 9 10 11 13 10 10 11 10 9 7 6 5 6 5 6 6 5
1 8 9 10 6 5 4 15 14 17 17 15 15 14 12 12 9 13 13 13 14 15 15 17 17 14 13 14 13 9 9 9 9 11 15 15 12 12 12 11 11 10 8 8 7 6 3 6 5
5 4 13 4 9 8 9 25 10 10 15 15 15 13 11 12 11 12 12 13 13 13 16 16 15 17 15 13 13 10 10 11 9 9 10 16 15 15 13 11 11 11 10 8 7 8 7 6 7
6 16 16 11 9 4 17 21 12 2 8 10 8 5 5 7 7 11 13 13 13 14 15 16 18 19 20 17 11 12 13 12 12 10 9 13 16 16 13 11 11 13 11 10 10 9 9 8 7
12 11 11 15 3 7 16 19 13 12 12 13 14 13 11 11 13 12 11 10 12 15 16 17 16 19 19 14 11 9 9 11 12 12 12 14 11 15 13 11 13 13 11 11 10 11 9 8 8
10 9 11 4 4 9 14 18 16 13 15 16 17 18 18 16 12 12 12 11 12 12 15 17 19 20 15 12 10 10 11 11 11 13 18 16 14 14 13 10 11 13 13 13 14 11 12 8 8
11 14 17 13 10 13 17 25 22 21 23 22 20 20 21 20 18 16 14 13 12 13 14 16 18 20 18 13 12 12 13 11 11 10 14 17 17 16 13 12 12 14 11 15 15 14 9 9 10
11 13 12 13 11 13 15 24 21 17 19 19 20 19 19 18 16 14 12 11 9 11 12 14 16 18 19 19 12 10 9 9 8 10 12 16 19 16 17 17 13 13 13 12 16 15 16 10 9
15 5 10 12 9 8 2 10 10 6 10 11 12 10 10 10 7 6 4 1 3 5 6 10 14 17 17 20 16 17 12 11 9 10 12 12 18 20 20 18 16 14 12 13 14 14 14 13 11
8 1 5 9 12 12 16 10 3 2 9 8 8 2 2 5 5 5 5 5 5 6 6 5 9 14 17 18 21 15 16 11 9 11 14 14 14 17 19 18 17 15 12 14 14 14 16 13 11
3 7 9 6 7 10 16 13 11 10 10 6 4 5 6 5 6 6 6 6 7 6 7 6 6 8 13 18 21 22 19 17 13 14 13 12 12 13 17 19 16 17 15 15 15 16 17 16 13
8 6 5 6 7 10 3 10 16 6 3 2 5 5 6 7 8 8 9 9 9 10 9 8 8 8 7 15 19 20 22 22 22 20 16 16 13 13 17 19 18 16 18 17 15 15 15 16 15
3 5 6 7 8 6 3 7 7 6 8 10 9 6 7 9 9 10 10 10 10 10 10 11 11 10 8 9 15 17 20 15 16 19 16 14 14 15 19 19 19 20 20 18 17 13 13 14 14
3 6 4 7 10 9 9 9 10 8 9 8 8 8 8 10 11 12 11 10 11 10 10 10 11 11 10 9 10 15 17 20 18 20 19 15 16 14 18 20 20 19 18 18 17 13 15 14 14
8 3 5 4 6 11 10 12 10 5 7 5 4 8 7 8 10 12 11 11 9 10 10 9 9 10 10 10 9 11 16 18 18 17 22 20 17 16 17 18 19 19 18 17 17 14 15 15 13
6 7 6 4 6 8 12 9 3 3 4 3 5 6 8 11 12 11 12 10 10 9 9 9 10 11 11 10 10 9 13 16 17 16 19 19 18 18 18 18 18 19 18 18 17 16 16 17 16
10 14 13 9 10 8 12 14 15 13 14 11 12 7 11 13 11 12 12 10 9 9 10 9 9 10 11 12 11 9 9 14 16 17 17 18 19 17 18 18 18 19 18 18 17 17 15 17 18
Wind_Direction
311 315 253 219 227 246 217 201 284 189 192 118 143 165 183 130 185 189 49 150 147 155 164 178 177 158 144 147 150 157 160 149 164 156 157 156 159 152 143 141 136 119 106 107 107 101 102 102 103
311 276 222 208 244 218 202 195 209 180 84 139 129 137 156 163 79 96 134 164 158 151 157 156 151 148 139 148 154 156 158 149 165 160 155 155 164 177 154 144 127 121 107 101 101 106 110 109 105
244 300 231 225 240 230 229 192 192 165 183 180 141 335 120 102 120 144 113 157 154 152 151 139 143 144 142 152 156 159 145 151 164 165 161 150 126 132 135 131 124 117 116 112 109 110 110 114 112
242 175 157 239 224 238 257 159 125 169 169 202 177 161 138 37 109 140 143 160 156 151 153 141 146 144 150 155 154 156 153 152 163 165 151 147 128 127 126 126 123 121 121 115 114 116 119 119 117
130 228 215 233 240 247 234 219 223 190 158 165 190 141 121 116 101 135 153 164 161 157 151 153 150 148 152 153 157 159 159 147 145 141 138 140 132 130 131 131 131 128 126 122 121 120 118 126 123
180 267 223 225 216 230 242 229 239 228 179 146 182 164 106 112 144 146 154 170 166 159 154 156 153 152 153 153 157 155 158 147 148 149 137 137 133 125 124 128 135 134 133 133 134 131 128 120 109
237 215 237 240 236 234 229 181 225 227 193 190 125 184 103 154 136 146 158 166 173 166 162 161 166 159 152 148 156 160 159 161 151 152 137 135 130 130 128 136 143 143 143 140 138 136 137 131 117
224 238 204 212 219 240 169 188 231 225 198 55 294 197 153 129 142 145 155 165 177 177 175 169 170 169 167 163 164 164 160 152 148 151 145 134 125 124 139 150 160 153 146 138 134 129 132 118 121
202 224 230 227 191 210 159 201 158 39 204 150 101 21 57 126 139 146 155 168 178 185 186 178 170 174 175 171 170 162 159 153 149 164 138 142 155 163 158 157 153 144 144 137 125 129 105 110 108
221 227 224 228 209 243 177 218 163 213 185 181 165 111 123 139 155 162 175 178 186 189 190 187 181 181 179 177 170 179 173 183 183 184 160 159 158 161 173 151 137 132 131 134 121 125 106 110 135
180 238 228 221 225 265 214 222 271 212 224 217 195 146 146 159 172 183 188 190 195 192 193 192 194 190 184 181 175 181 177 180 177 170 160 160 135 152 140 132 145 150 147 138 126 134 125 123 140
230 232 224 279 208 201 239 309 249 255 252 77 74 85 165 182 189 195 198 191 194 202 201 201 193 197 194 183 185 175 184 181 180 173 173 172 152 147 163 157 139 145 139 139 136 133 137 147 151
231 224 216 272 275 248 264 239 252 248 258 245 269 237 215 207 212 208 212 203 196 205 203 204 200 204 195 196 186 181 185 185 185 183 182 180 169 170 157 179 157 135 138 138 127 131 136 158 159
43 273 269 276 248 262 242 249 217 230 249 252 245 252 241 230 229 223 218 213 211 205 206 202 198 204 199 196 189 186 185 188 186 187 189 191 185 179 179 181 171 150 152 149 137 144 152 171 171
286 271 257 234 239 247 203 247 233 243 246 239 240 243 251 251 242 227 227 225 218 214 209 208 200 194 197 206 195 194 183 184 187 192 190 194 192 187 186 185 184 169 158 153 129 132 132 173 175
233 229 256 201 215 223 213 258 250 228 248 248 248 253 256 260 254 248 247 243 234 231 222 212 205 205 200 206 200 199 192 193 192 190 189 191 194 191 192 191 193 184 172 165 164 177 184 205 202
212 259 243 271 209 244 216 264 260 339 250 264 260 259 277 276 262 255 249 247 244 236 231 224 212 210 208 209 208 202 210 205 199 193 187 191 193 193 192 194 195 185 185 189 184 187 197 199 205
249 237 244 252 142 239 252 255 263 265 288 283 286 282 269 264 267 269 263 248 245 240 234 230 223 216 213 208 201 199 207 207 205 198 193 190 192 191 191 193 190 187 187 192 190 187 190 201 195
276 267 258 246 285 315 264 271 269 270 275 273 275 277 273 266 258 261 259 254 247 240 238 230 228 221 213 206 191 196 201 205 204 202 202 190 193 192 193 183 178 188 191 191 192 189 180 183 180
252 261 264 283 275 260 275 274 274 268 264 260 262 264 268 268 263 251 247 252 252 254 246 242 233 228 219 213 204 207 208 209 206 198 199 204 197 192 190 184 185 186 187 192 192 182 182 191 183
239 250 259 264 283 279 273 274 261 252 249 253 254 256 263 266 271 274 270 274 278 262 250 243 240 238 235 217 217 210 213 207 200 194 198 207 206 196 193 192 188 189 189 189 193 192 189 184 190
265 275 255 256 262 261 206 282 286 257 266 247 253 250 261 272 275 290 278 312 345 317 284 257 246 236 231 227 217 211 209 208 198 200 205 205 204 205 203 199 192 190 194 193 192 191 196 191 191
286 49 260 267 258 262 240 263 235 240 256 254 258 192 50 62 66 50 12 0 354 347 338 300 264 245 231 222 221 215 215 215 196 197 200 199 202 206 204 204 196 192 196 202 194 192 197 199 196
262 247 247 277 260 239 249 227 274 263 271 284 336 79 76 54 44 34 9 355 358 0 357 345 332 264 243 230 225 222 217 215 214 202 203 198 196 202 204 203 202 201 197 199 198 194 196 198 204
227 239 254 228 205 247 284 213 257 273 231 19 109 84 51 42 29 17 8 360 354 353 351 345 338 319 268 242 231 225 222 220 216 209 210 201 200 198 201 199 202 203 202 201 198 196 198 200 202
262 260 264 263 247 274 133 235 239 90 88 90 94 69 42 33 18 8 359 351 349 344 344 341 338 327 314 266 244 236 229 225 221 216 212 213 202 201 197 203 203 206 205 205 199 198 200 201 205
133 229 357 295 266 266 254 241 254 145 104 103 81 61 37 17 4 354 348 346 344 345 341 339 335 328 327 307 270 242 232 229 226 220 218 213 210 201 204 200 205 206 206 202 198 198 199 197 202
245 5 243 221 263 262 247 252 256 129 169 134 58 33 22 11 354 342 339 336 335 334 338 335 338 335 328 326 304 259 238 231 230 228 224 218 210 203 199 202 199 204 203 202 199 200 199 198 201
201 228 209 280 266 270 272 263 81 55 143 296 317 315 329 333 333 331 323 323 321 323 332 331 337 339 344 338 326 297 254 237 230 231 231 224 215 202 198 199 196 199 202 201 201 203 200 200 202
255 249 229 241 238 249 275 265 286 281 274 276 285 277 299 315 307 307 306 306 314 318 329 326 331 334 340 339 332 327 286 250 238 229 233 230 219 204 194 197 198 198 199 199 199 203 202 200 203